M0CJS Weather Reports


Display with metric or nautical units.
time (UTC)temp
F
wind
direction
speed
MPH
gust
MPH
rain 1hr
in
rain 24hr
in
rain mn
in
humidity
%
barometer
mb
20260902123516 64 180 4.0 12.0 0.00 0.02 0.02 85 1018.1
20260902122515 64 203 9.0 21.0 0.00 0.02 0.02 82 1018.1
20260902121536 65 180 4.0 10.0 0.00 0.02 0.02 82 1018.3
20260902120516 66 158 4.0 11.0 0.00 0.02 0.02 81 1018.1
20260902115535 67 158 5.0 13.0 0.00 0.02 0.02 79 1018.3
20260902114515 65 180 5.0 16.0 0.00 0.02 0.02 81 1018.6
20260902113516 65 203 7.0 17.0 0.00 0.02 0.02 82 1018.8
20260902112516 65 180 5.0 14.0 0.00 0.02 0.02 83 1018.9
20260902111515 65 203 8.0 16.0 0.00 0.02 0.02 84 1019.1
20260902110515 65 203 6.0 13.0 0.00 0.02 0.02 86 1019.3
20260902105515 65 203 7.0 19.0 0.00 0.02 0.02 82 1019.4
20260902104515 66 203 8.0 16.0 0.00 0.02 0.02 82 1019.6
20260902103515 65 203 7.0 16.0 0.00 0.02 0.02 86 1019.7
20260902102515 64 203 8.0 16.0 0.00 0.02 0.02 86 1019.8
20260902101515 64 203 9.0 15.0 0.00 0.02 0.02 87 1019.9
20260902100515 64 203 8.0 15.0 0.00 0.02 0.02 87 1020.0
20260902095515 63 203 7.0 15.0 0.00 0.02 0.02 89 1020.0
20260902094515 63 203 8.0 20.0 0.00 0.02 0.02 90 1020.0
20260902093515 63 203 7.0 15.0 0.00 0.02 0.02 91 1020.1
20260902092515 63 203 5.0 9.0 0.00 0.02 0.02 93 1020.1
20260902091517 62 203 5.0 12.0 0.00 0.02 0.02 93 1020.1
20260902090517 62 203 5.0 11.0 0.00 0.02 0.02 93 1020.1
20260902085537 62 203 4.0 11.0 0.01 0.02 0.02 94 1020.0
20260902084537 62 203 5.0 12.0 0.01 0.02 0.02 94 1020.3
20260902083517 61 203 5.0 9.0 0.01 0.02 0.02 96 1020.2
20260902082517 60 203 6.0 12.0 0.01 0.02 0.02 95 1020.3
20260902081537 60 203 7.0 14.0 0.01 0.02 0.02 96 1020.3
20260902080537 60 180 2.0 9.0 0.01 0.02 0.02 96 1020.2
20260902075517 60 180 2.0 8.0 0.00 0.01 0.01 96 1020.0
20260902074517 60 180 1.0 5.0 0.00 0.01 0.01 97 1020.2
20260902073537 59 180 1.0 4.0 0.00 0.01 0.01 97 1020.3
20260902072517 59 203 2.0 5.0 0.01 0.01 0.01 97 1020.2
20260902071517 59 135 1.0 4.0 0.01 0.01 0.01 97 1020.0
20260902070537 59 203 1.0 4.0 0.01 0.01 0.01 97 1020.0
20260902065517 59 203 2.0 6.0 0.01 0.01 0.01 96 1019.9
20260902064517 59 225 1.0 3.0 0.01 0.01 0.01 96 1019.9
20260902063517 58 158 1.0 6.0 0.01 0.01 0.01 97 1019.8
20260902062517 58 158 1.0 4.0 0.00 0.00 0.00 96 1019.9
20260902061537 58 180 1.0 4.0 0.00 0.00 0.00 96 1020.0
20260902060517 58 180 1.0 5.0 0.00 0.00 0.00 96 1019.9
20260902055517 58 225 3.0 6.0 0.00 0.00 0.00 95 1019.7
20260902054517 58 203 3.0 7.0 0.00 0.00 0.00 95 1019.6
20260902053517 58 203 4.0 8.0 0.00 0.00 0.00 94 1019.5
20260902052517 58 203 5.0 10.0 0.00 0.00 0.00 94 1019.6
20260902051517 58 203 3.0 6.0 0.00 0.00 0.00 93 1019.7
20260902050537 58 203 3.0 5.0 0.00 0.00 0.00 93 1019.7
20260902045517 58 203 2.0 6.0 0.00 0.00 0.00 92 1019.6
20260902044517 58 203 3.0 8.0 0.00 0.00 0.00 92 1019.8
20260902043617 58 203 3.0 7.0 0.00 0.00 0.00 92 1019.9
20260902042536 58 203 3.0 7.0 0.00 0.00 0.00 92 1019.8
20260902041537 58 203 3.0 7.0 0.00 0.00 0.00 91 1019.8
20260902040536 58 225 3.0 6.0 0.00 0.00 0.00 91 1019.9
20260902035536 58 225 2.0 6.0 0.00 0.00 0.00 91 1019.9
20260902034536 57 203 3.0 5.0 0.00 0.00 0.00 91 1020.0
20260902033516 57 203 1.0 3.0 0.00 0.00 0.00 91 1019.8
20260902032516 57 203 1.0 3.0 0.00 0.00 0.00 90 1019.9
20260902031516 57 0.0 3.0 0.00 0.00 0.00 91 1020.1
20260902030516 57 0.0 0.0 0.00 0.00 0.00 90 1020.2
20260902025556 57 0.0 0.0 0.00 0.00 0.00 91 1020.3
20260902024517 57 0.0 0.0 0.00 0.00 0.00 91 1020.4
20260902023516 57 0.0 1.0 0.00 0.00 0.00 90 1020.5
20260902022516 57 203 1.0 6.0 0.00 0.00 0.00 89 1020.4
20260902021516 57 225 2.0 4.0 0.00 0.00 0.00 89 1020.4
20260902020516 57 203 2.0 4.0 0.00 0.00 0.00 89 1020.4
20260902015536 58 203 3.0 7.0 0.00 0.00 0.00 88 1020.5
20260902014516 58 203 3.0 8.0 0.00 0.00 0.00 88 1020.5
20260902013536 58 225 4.0 6.0 0.00 0.00 0.00 88 1020.5
20260902012518 58 203 4.0 6.0 0.00 0.00 0.00 88 1020.4
20260902011516 58 203 3.0 6.0 0.00 0.00 0.00 87 1020.5
20260902010536 58 203 5.0 9.0 0.00 0.00 0.00 86 1020.6
20260902005516 58 203 5.0 9.0 0.00 0.00 0.00 86 1020.7
20260902004516 58 203 4.0 7.0 0.00 0.00 0.00 86 1020.9
20260902003536 59 203 4.0 7.0 0.00 0.00 0.00 85 1020.9
20260902002516 59 203 4.0 7.0 0.00 0.00 0.00 85 1021.0
20260902001516 59 203 4.0 9.0 0.00 0.00 0.00 85 1021.0
20260902000541 59 203 4.0 9.0 0.00 0.00 0.00 84 1020.9
20260901235516 60 203 3.0 8.0 0.00 0.00 0.00 83 1020.8
20260901234516 60 203 4.0 7.0 0.00 0.00 0.00 83 1020.8
20260901233516 60 225 4.0 10.0 0.00 0.00 0.00 83 1020.7
20260901232519 60 203 4.0 10.0 0.00 0.00 0.00 83 1020.9
20260901231516 60 203 2.0 5.0 0.00 0.00 0.00 82 1021.0
20260901230559 60 203 3.0 7.0 0.00 0.00 0.00 83 1020.9
20260901225516 61 225 4.0 10.0 0.00 0.00 0.00 82 1021.2
20260901224518 61 225 2.0 4.0 0.00 0.00 0.00 81 1021.1
20260901223538 61 225 3.0 8.0 0.00 0.00 0.00 81 1021.2
20260901222516 61 225 3.0 8.0 0.00 0.00 0.00 80 1021.0
20260901221516 61 225 2.0 8.0 0.00 0.00 0.00 80 1021.2
20260901220516 61 225 1.0 5.0 0.00 0.00 0.00 80 1021.1
20260901215516 62 248 1.0 4.0 0.00 0.00 0.00 80 1021.2
20260901214536 62 225 3.0 8.0 0.00 0.00 0.00 80 1021.3
20260901213536 62 203 4.0 7.0 0.00 0.00 0.00 80 1021.2
20260901212537 62 203 3.0 7.0 0.00 0.00 0.00 81 1021.3
20260901211536 62 203 3.0 6.0 0.00 0.00 0.00 80 1021.3
20260901210518 62 203 3.0 6.0 0.00 0.00 0.00 80 1021.3
20260901205517 62 225 3.0 6.0 0.00 0.00 0.00 80 1021.3
20260901204516 62 225 4.0 8.0 0.00 0.00 0.00 79 1021.1
20260901203538 62 225 3.0 6.0 0.00 0.00 0.00 78 1021.0
20260901202517 63 225 2.0 7.0 0.00 0.00 0.00 78 1021.0
20260901201517 63 203 3.0 7.0 0.00 0.00 0.00 77 1021.0
20260901200517 63 225 1.0 2.0 0.00 0.00 0.00 77 1021.0
20260901195518 63 270 1.0 3.0 0.00 0.00 0.00 76 1020.9
20260901194518 63 270 3.0 6.0 0.00 0.00 0.00 76 1020.8
20260901193517 64 248 2.0 6.0 0.00 0.00 0.00 78 1020.9
20260901192519 64 270 4.0 9.0 0.00 0.00 0.00 77 1021.0
20260901191517 64 270 3.0 7.0 0.00 0.00 0.00 77 1020.9
20260901190518 64 248 3.0 8.0 0.00 0.00 0.00 76 1020.8
20260901185516 65 270 3.0 8.0 0.00 0.00 0.00 75 1021.0
20260901184517 65 270 3.0 7.0 0.00 0.00 0.00 75 1020.8
20260901183518 65 248 3.0 7.0 0.00 0.00 0.00 74 1020.4
20260901182517 66 248 4.0 10.0 0.00 0.00 0.00 73 1020.4
20260901181516 66 248 4.0 10.0 0.00 0.00 0.00 72 1020.5
20260901180516 66 225 4.0 7.0 0.00 0.00 0.00 70 1020.4
20260901175516 67 225 4.0 13.0 0.00 0.00 0.00 70 1020.4
20260901174517 67 225 2.0 7.0 0.00 0.00 0.00 72 1020.3
20260901173518 67 270 2.0 7.0 0.00 0.00 0.00 72 1020.5
20260901172517 67 270 3.0 7.0 0.00 0.00 0.00 71 1020.6
20260901171520 67 270 3.0 7.0 0.00 0.00 0.00 70 1020.2
20260901170516 67 270 3.0 7.0 0.00 0.00 0.00 70 1020.3
20260901165516 67 270 2.0 4.0 0.00 0.00 0.00 70 1020.3
20260901164517 67 293 5.0 10.0 0.00 0.00 0.00 70 1020.4
20260901163516 68 270 4.0 10.0 0.00 0.00 0.00 68 1020.5
20260901162536 68 270 5.0 9.0 0.00 0.00 0.00 65 1020.3
20260901161516 69 293 4.0 9.0 0.00 0.00 0.00 63 1020.2
20260901160516 69 270 3.0 7.0 0.00 0.00 0.00 63 1020.3
20260901155516 70 270 3.0 8.0 0.00 0.00 0.00 62 1020.3
20260901154516 70 248 4.0 10.0 0.00 0.00 0.00 61 1020.3
20260901153516 70 225 5.0 12.0 0.00 0.00 0.00 61 1020.2
20260901152516 70 270 4.0 10.0 0.00 0.00 0.00 61 1020.3
20260901151518 71 270 5.0 12.0 0.00 0.00 0.00 59 1020.3
20260901150516 71 270 4.0 10.0 0.00 0.00 0.00 59 1020.5
20260901145516 71 248 4.0 13.0 0.00 0.00 0.00 58 1020.4
20260901144516 71 270 4.0 8.0 0.00 0.00 0.00 61 1020.5
20260901143516 71 270 4.0 13.0 0.00 0.00 0.00 59 1020.6
20260901142516 71 225 6.0 14.0 0.00 0.00 0.00 57 1020.6
20260901141516 71 270 5.0 11.0 0.00 0.00 0.00 58 1020.5
20260901140537 71 270 4.0 10.0 0.00 0.00 0.00 57 1020.5
20260901135518 72 203 5.0 11.0 0.00 0.00 0.00 56 1020.6
20260901134518 71 248 4.0 10.0 0.00 0.00 0.00 58 1020.5
20260901133518 69 225 5.0 13.0 0.00 0.00 0.00 58 1020.6
20260901132517 70 225 3.0 8.0 0.00 0.00 0.00 60 1020.7
20260901131517 70 270 4.0 10.0 0.00 0.00 0.00 59 1020.9
20260901130516 70 293 4.0 8.0 0.00 0.00 0.00 57 1020.8
20260901125539 70 225 4.0 9.0 0.00 0.00 0.00 57 1020.8
20260901124537 71 270 5.0 10.0 0.00 0.00 0.00 57 1021.0